Погода в Угольном

Россия / Оренбургская область     51°06′36″N   55°10′47″E
темп.,
°C
ветер,
м/с
пор.,
м/с
влажн.,
%
обл.,
%
осадки,
мм/ч
давл.,
гПа
погр.,
м
12 апреля, пн
пн1223:00+8в410885 0.0 1033178
02:00+7вюв477845 0.0 1034118
05:00+5вюв356374 0.0 103465
08:00+6вюв366337 0.0 1035129
11:00+12в454278 0.0 1035365
14:00+16в45306 0.0 1034710
17:00+18в55284 0.0 1033817
20:00+12в454817 0.0 103454
13 апреля, вт
вт1323:00+9в46625 0.0 103573
02:00+6в46625 0.0 103590
05:00+4в48635 0.0 1036119
08:00+5в4115866 0.0 1037255
11:00+12в710365 0.0 1036501
14:00+16в78385 0.0 1035925
17:00+16в78446 0.0 1034979
20:00+13в510705 0.0 1033235
14 апреля, ср
ср1423:00+9в612880 0.0 1034327
02:00+7в510945 0.0 1033251
05:00+6в599780 0.0 1033265
08:00+8всв59884 0.0 1032368
11:00+13в79640 0.0 1030651
14:00+16в78480 0.0 10281016
17:00+17в78450 0.0 10261208
20:00+13в410600 0.0 1026174
15 апреля, чт
чт1523:00+10в512700 0.0 1026232
02:00+8в49750 0.0 1025154
05:00+7в47730 0.0 1025110
08:00+8в49710 0.0 1024213
11:00+15вюв68460 0.0 1023493
14:00+19вюв57340 0.0 10211044
17:00+20в56290 0.0 10191313
20:00+15в344746 0.0 101936
16 апреля, пт
пт1623:00+12в4455100 0.0 101847
02:00+10в3459100 0.0 101844
05:00+9в3362100 0.0 101730
08:00+9всв246162 0.0 101686
11:00+15всв334062 0.0 1015474
14:00+18ссв222868 0.0 10141083
17:00+19ссз332673 0.0 10131390
20:00+15с2241100 0.0 101211